Theta_e
354 352 351 350 350 351 343 336 335 331 331 333 332 332 331 330 330 330 329 328 329 329 327 327 326 325 323 322 321 320 320 319 320 319 319 319 318 320 319 320 321 320 320
346 352 350 349 351 343 339 338 335 333 333 333 332 332 331 331 330 331 330 327 328 328 328 327 326 324 325 323 320 319 319 319 319 321 319 319 318 318 319 322 319 319 319
342 345 347 348 347 341 335 335 333 331 332 333 332 331 330 330 331 331 329 326 327 327 327 327 326 325 324 322 321 319 318 318 318 318 318 317 317 317 317 318 318 317 319
342 341 345 345 340 338 335 334 329 325 329 332 332 330 330 330 330 330 329 327 327 327 327 327 326 324 322 320 318 317 316 316 315 315 315 315 316 317 318 319 318 316 316
342 340 341 342 338 335 337 328 330 331 332 332 332 331 331 330 330 330 329 328 329 329 328 326 324 322 317 314 312 313 314 313 313 314 314 315 317 319 318 317 316 314 314
335 339 340 340 338 336 338 332 334 334 333 332 332 331 331 331 329 329 329 330 330 329 327 325 324 321 319 316 313 312 312 312 313 313 315 316 317 317 316 316 315 315 315
334 335 336 338 337 335 335 335 335 335 335 332 332 332 332 331 329 327 328 330 329 327 326 325 323 320 317 317 316 315 313 313 313 313 314 315 315 315 313 313 314 315 315
333 333 332 335 334 335 334 334 335 335 335 333 333 333 332 332 328 326 326 326 325 325 324 323 322 320 318 316 314 313 313 314 315 315 315 315 314 312 312 312 312 311 312
330 329 330 331 334 335 334 334 334 335 335 335 334 333 333 331 328 324 322 322 323 324 322 320 319 318 315 313 311 311 313 313 313 312 313 312 312 310 309 308 309 312 314
327 325 327 330 331 332 334 333 331 335 335 334 334 334 333 327 325 323 319 321 322 320 319 318 316 314 312 310 309 311 312 312 312 313 312 312 312 311 311 309 310 312 313
327 327 325 328 333 331 333 333 331 334 334 333 334 334 332 325 320 316 311 316 317 317 316 314 313 312 310 309 309 309 310 309 308 308 308 309 311 313 314 313 311 311 313
325 324 320 323 320 329 332 333 332 333 334 334 333 330 328 321 316 311 309 307 308 309 311 311 312 311 310 310 309 308 306 305 305 306 307 309 311 313 314 313 313 313 312
323 320 319 318 316 317 319 323 329 332 332 330 329 327 324 320 312 310 309 309 309 308 310 311 309 308 308 309 310 310 308 306 307 306 308 311 313 313 312 311 310 310 310
320 319 317 315 314 314 313 314 310 313 318 325 324 323 321 319 317 311 311 310 310 309 308 310 308 307 308 310 310 311 310 311 311 311 312 312 312 310 309 308 307 306 307
319 318 316 317 312 311 312 312 313 311 308 309 312 317 316 316 308 309 309 307 306 305 304 305 307 309 310 312 313 314 313 314 313 312 310 309 308 307 306 305 304 303 303
318 317 316 315 312 312 309 309 313 314 313 311 307 305 307 307 305 305 304 304 304 303 302 305 307 309 311 313 313 312 311 310 308 307 307 307 306 305 305 304 303 303 303
317 317 315 314 313 310 309 306 303 305 304 304 304 304 304 304 303 303 303 302 302 301 303 307 310 312 312 312 310 308 307 306 305 305 304 303 303 303 302 302 303 303 303
317 316 316 313 313 311 311 310 311 308 306 304 304 305 303 303 302 302 301 302 306 307 307 310 310 309 309 307 305 304 304 303 302 301 300 300 300 301 301 301 303 303 303
313 312 310 310 308 307 307 307 308 309 309 309 307 305 304 303 303 304 302 305 307 307 307 306 306 305 304 304 303 301 300 300 299 298 298 298 298 299 299 300 301 302 303
312 311 311 311 308 309 308 309 307 307 308 308 308 307 306 304 305 306 306 306 305 304 303 303 303 302 302 300 299 299 298 298 297 298 298 298 298 299 299 299 300 301 303
311 310 310 310 310 308 308 308 307 306 307 306 307 303 302 302 304 305 305 303 303 302 301 300 299 298 298 297 297 297 297 297 297 297 298 298 298 298 299 299 300 300 302
309 309 309 309 308 308 308 307 306 304 305 306 306 303 303 304 305 304 303 302 300 299 299 298 297 297 296 296 296 296 297 297 297 297 298 298 298 299 299 299 300 301 302
308 308 307 307 306 304 305 306 306 306 306 305 304 305 305 305 304 302 300 299 299 299 299 298 297 297 296 296 296 296 296 297 298 297 297 298 299 301 304 303 302 302 303
307 306 305 305 305 305 305 303 303 303 305 304 304 304 305 304 304 301 301 300 300 301 302 301 300 298 297 295 295 296 296 297 297 297 298 299 301 302 305 304 305 304 304
304 305 304 304 304 304 304 304 303 303 303 303 303 303 303 304 304 303 302 302 302 302 304 302 301 299 298 297 298 297 300 303 306 307 305 305 304 306 306 304 304 304 304
303 303 303 303 303 303 302 301 301 301 301 301 301 301 301 302 302 303 303 303 303 303 302 303 301 301 301 300 299 301 303 306 310 314 311 309 307 309 308 306 304 303 304
Wind_Speed
41 39 36 33 34 31 33 37 28 28 21 27 28 24 24 22 20 17 13 12 11 8 5 3 1 2 5 8 8 9 10 12 13 18 19 20 22 19 18 21 20 24 21
27 27 31 33 31 34 30 23 18 19 13 20 24 22 22 21 21 18 17 15 14 11 7 5 3 4 6 7 9 9 11 13 15 16 19 20 20 18 16 12 20 21 21
24 26 27 28 31 32 34 33 32 25 26 26 25 26 25 22 20 19 17 16 14 11 8 6 3 5 7 8 10 11 12 14 15 18 21 21 20 20 17 17 15 20 22
20 21 24 24 28 34 35 40 46 50 42 32 32 30 27 24 21 20 19 17 14 11 8 6 5 6 8 8 9 11 14 15 17 19 20 21 20 18 17 18 21 19 20
15 17 20 27 34 35 31 38 41 48 49 49 39 32 27 25 24 22 20 17 14 11 8 7 8 9 12 13 10 10 12 13 16 18 19 20 18 18 18 19 19 19 19
9 13 18 29 29 36 34 38 41 41 45 47 43 46 34 27 25 27 22 18 15 12 9 7 9 13 12 10 11 14 14 13 15 16 18 18 18 17 17 17 18 18 13
11 9 9 19 22 28 31 36 39 38 38 39 38 37 37 36 31 31 27 17 13 12 10 8 10 11 9 11 13 15 15 17 17 17 18 19 19 18 18 19 17 18 19
12 15 18 16 24 27 31 35 35 34 34 36 36 34 32 30 29 32 31 16 12 11 10 9 11 13 12 12 13 16 17 15 15 16 18 20 21 22 17 16 22 21 22
9 12 15 15 16 26 30 29 32 36 33 33 31 31 30 30 29 28 26 14 13 12 12 11 11 12 16 20 15 17 17 16 16 17 20 24 24 27 27 22 21 19 18
9 7 10 11 10 15 27 30 41 29 32 30 29 31 28 27 26 25 23 13 13 12 11 11 15 17 18 22 16 18 17 16 16 16 17 18 20 25 25 21 18 19 18
8 7 7 7 8 14 21 29 35 29 30 31 30 27 25 22 25 23 19 10 9 9 9 11 14 13 10 16 20 19 19 20 20 21 21 22 22 20 20 21 21 18 20
4 5 9 13 15 11 10 21 29 29 27 26 26 23 21 19 21 18 13 9 9 6 8 10 15 16 16 19 24 26 28 28 23 20 21 22 23 19 17 18 19 19 22
6 8 10 14 20 21 21 19 9 17 23 22 21 21 19 17 16 11 5 2 2 4 7 12 17 18 17 19 20 19 19 18 19 19 21 21 21 18 14 18 20 22 22
7 11 11 13 23 15 26 27 24 17 12 15 16 17 20 18 15 10 8 4 2 5 5 10 15 22 23 20 21 19 17 20 20 19 19 19 19 18 17 17 17 18 20
10 9 11 9 12 22 23 23 18 17 17 16 15 8 14 13 9 9 6 2 4 7 13 15 17 17 17 17 18 16 17 16 12 16 19 21 23 23 21 21 21 21 21
12 10 9 12 17 13 13 18 15 2 3 3 2 10 7 10 5 3 4 7 10 12 10 15 18 17 17 18 18 19 20 19 20 23 23 21 22 22 21 21 22 22 20
17 13 12 10 11 12 10 10 15 11 5 7 5 7 1 1 3 1 8 11 14 14 10 12 15 17 19 18 19 17 17 21 23 22 25 23 23 22 21 21 20 20 20
14 15 14 12 12 13 11 11 12 14 11 12 10 4 3 4 9 9 8 11 11 6 7 13 16 18 19 18 18 18 19 22 23 22 22 21 22 22 22 21 19 21 20
14 13 13 15 16 13 8 5 5 7 7 8 7 5 4 3 9 6 5 7 8 10 11 13 15 16 19 20 18 22 23 24 23 23 23 23 23 22 23 22 21 23 23
17 20 20 13 12 12 8 5 3 2 2 2 2 3 8 6 6 4 4 6 8 11 12 14 16 18 20 20 23 22 23 24 22 22 23 24 24 23 24 23 22 22 21
14 12 12 17 15 12 6 5 3 1 2 2 3 7 8 2 3 6 7 8 9 11 14 16 18 21 21 22 24 23 25 27 25 25 25 25 24 23 22 23 24 23 23
12 12 9 10 10 8 9 5 7 4 3 3 3 6 7 4 8 8 8 10 12 13 17 20 23 23 23 24 25 26 29 28 27 26 25 25 23 22 21 21 21 22 22
12 9 10 12 10 7 5 6 7 7 6 7 8 6 7 9 9 9 13 14 15 16 19 19 20 25 26 26 27 28 30 31 30 28 25 23 22 21 20 21 21 21 21
11 10 11 9 8 8 10 10 9 9 9 9 9 11 9 9 6 10 14 16 16 19 24 29 27 27 26 25 24 23 24 27 29 28 25 24 25 24 20 19 17 20 20
11 11 9 10 11 12 12 13 12 10 11 12 13 13 11 10 11 11 14 18 21 22 23 27 25 25 24 19 17 19 21 23 21 21 21 21 22 24 24 19 17 15 17
12 10 13 13 11 13 14 14 13 13 13 14 16 15 14 15 15 15 16 17 19 16 20 21 27 29 29 25 24 19 17 16 13 12 14 16 19 22 22 20 16 14 14
Wind_Direction
193 197 210 213 206 199 183 181 188 185 180 178 178 187 187 190 192 198 196 184 187 194 188 186 243 312 312 312 313 311 310 311 307 302 307 310 311 306 309 310 316 316 315
208 201 199 213 197 182 175 166 171 150 176 195 182 193 195 197 196 196 196 197 193 196 206 212 258 309 308 308 305 309 303 298 295 301 305 308 307 307 308 310 317 316 311
204 208 207 209 189 177 168 164 156 156 205 209 194 194 201 203 202 200 201 202 206 199 213 228 261 300 307 309 305 302 301 302 300 299 304 302 308 309 314 307 313 310 301
204 208 202 199 169 169 169 172 172 173 195 212 203 198 202 203 205 206 206 206 210 214 204 238 260 283 290 300 300 300 298 308 307 299 302 309 312 317 319 329 322 318 312
194 207 211 172 181 181 187 177 185 188 192 188 192 195 197 202 205 205 209 206 210 217 214 237 271 273 280 294 285 292 299 303 302 303 304 308 313 330 327 316 307 312 311
277 222 192 168 175 191 197 193 200 196 193 192 187 180 186 200 208 204 204 204 210 214 228 244 272 289 294 288 289 299 294 288 292 297 302 305 308 312 323 320 309 303 306
315 261 206 168 176 188 195 198 201 203 197 190 188 185 183 186 200 201 197 202 210 222 230 253 279 289 299 287 296 292 288 290 288 282 286 288 297 301 308 304 298 301 297
353 340 343 213 192 196 201 204 206 204 199 192 191 186 187 183 186 196 198 196 214 233 246 253 267 282 293 281 286 283 278 282 284 280 275 282 284 287 281 288 294 292 289
2 358 349 329 208 196 195 202 203 207 200 197 191 182 178 181 191 192 195 200 224 235 249 257 268 282 286 280 279 279 285 291 295 291 286 283 278 280 283 273 273 277 284
352 356 351 339 272 231 196 192 202 210 195 190 187 183 178 172 179 191 187 201 220 238 254 274 282 269 273 279 279 285 288 291 294 291 288 284 283 283 283 260 263 267 274
346 357 28 12 313 233 214 188 196 203 191 193 185 178 164 168 176 184 187 196 228 246 275 287 286 283 264 270 282 282 283 287 289 288 285 282 278 269 262 261 244 247 262
346 41 48 66 39 33 191 198 197 197 190 185 164 147 145 151 172 176 187 196 236 267 277 279 278 279 282 282 284 286 287 286 281 277 276 276 275 271 272 269 262 252 251
91 71 68 86 59 66 64 62 88 184 158 151 148 157 162 163 165 171 167 127 356 314 279 273 283 291 295 300 302 300 290 274 271 269 270 272 274 282 291 285 275 270 268
136 104 89 83 89 76 62 58 43 43 45 129 162 168 162 162 155 167 171 166 249 303 302 291 285 292 299 294 290 281 269 258 252 257 267 279 289 291 280 278 277 275 276
159 140 124 110 101 97 89 64 51 36 30 24 28 133 155 146 128 160 175 211 249 272 290 298 295 293 295 295 292 283 269 277 277 288 282 276 273 273 269 265 256 262 265
157 163 145 131 118 108 108 108 100 42 305 41 342 338 96 121 145 206 264 285 287 299 309 289 288 291 288 293 297 297 295 295 289 281 276 271 275 271 267 259 248 247 253
182 179 168 157 141 135 143 134 125 129 128 141 136 257 244 245 234 356 329 303 297 289 261 278 282 286 297 300 298 298 290 285 284 276 277 276 278 274 273 269 246 239 243
174 180 170 146 150 143 144 169 158 167 172 178 184 181 26 10 349 18 328 328 297 256 253 284 301 305 304 300 293 288 287 286 284 280 279 283 280 275 275 269 260 241 239
146 155 142 145 141 125 132 140 148 167 151 143 159 201 182 301 344 334 271 279 307 310 315 311 311 307 296 292 295 290 286 285 285 288 289 281 277 274 271 268 260 255 234
161 156 152 144 145 131 139 156 139 99 84 73 66 49 109 352 331 326 288 309 337 336 317 309 303 298 296 299 294 288 293 289 293 291 285 282 277 268 261 260 254 253 237
133 137 139 152 147 134 158 152 115 347 70 51 92 66 4 319 330 350 349 346 354 333 315 309 306 301 300 298 292 301 292 290 291 287 285 280 272 266 261 256 254 249 245
135 148 139 110 112 140 130 153 121 127 122 82 84 73 40 26 22 11 6 2 352 334 325 320 314 306 302 301 307 299 290 288 287 286 280 274 270 266 260 253 249 243 240
121 115 123 105 98 121 145 116 119 116 102 87 72 61 53 53 47 27 21 8 2 356 354 336 321 328 329 324 307 292 286 285 287 281 275 272 269 266 270 250 243 235 231
104 101 104 121 124 122 108 102 96 79 91 88 78 65 55 64 66 27 18 13 12 5 6 359 355 345 335 322 309 301 296 294 288 279 274 267 267 270 266 271 253 234 220
115 121 128 132 124 118 123 113 106 98 83 80 73 67 53 49 52 30 24 14 6 3 0 348 358 354 354 341 336 323 311 297 283 288 276 261 259 265 259 251 250 240 209
123 123 110 116 120 114 110 107 100 93 88 80 71 66 53 45 38 28 27 20 11 8 357 359 6 14 10 11 8 356 340 315 299 297 287 269 265 269 255 237 233 228 208